�������C�����ː����j�^�v���󋵏��
Date,Time,Cs137(Bq/L),Cs134(Bq/L),�S��(Bq/L)
2017/06/08,00:00,0.66,0.032,ND
2017/06/08,00:10,0.67,0.025,ND
2017/06/08,00:20,0.69,0.035,ND
2017/06/08,00:30,0.70,0.036,ND
2017/06/08,00:40,0.66,0.043,ND
2017/06/08,00:50,0.69,0.037,ND
2017/06/08,01:00,0.70,0.037,ND
2017/06/08,01:10,0.70,0.048,ND
2017/06/08,01:20,0.64,0.072,ND
2017/06/08,01:30,0.63,0.088,ND
2017/06/08,01:40,0.72,0.053,ND
2017/06/08,01:50,0.67,0.089,ND
2017/06/08,02:00,0.72,0.069,ND
2017/06/08,02:10,0.71,0.067,ND
2017/06/08,02:20,0.67,0.10,ND
2017/06/08,02:30,0.68,0.091,ND
2017/06/08,02:40,0.66,0.094,ND
2017/06/08,02:50,0.70,0.068,8.9
2017/06/08,03:00,0.65,0.10,8.9
2017/06/08,03:10,0.69,0.081,ND
2017/06/08,03:20,0.68,0.098,ND
2017/06/08,03:30,0.69,0.10,ND
2017/06/08,03:40,0.76,0.074,ND
2017/06/08,03:50,0.72,0.11,ND
2017/06/08,04:00,0.80,0.063,ND
2017/06/08,04:10,0.82,0.058,ND
2017/06/08,04:20,0.76,0.10,ND
2017/06/08,04:30,0.80,0.071,ND
2017/06/08,04:40,0.79,0.063,ND
2017/06/08,04:50,0.74,0.078,ND
2017/06/08,05:00,0.75,0.050,ND
2017/06/08,05:10,0.71,0.054,ND
2017/06/08,05:20,0.69,0.052,ND
2017/06/08,05:30,0.69,0.052,ND
2017/06/08,05:40,0.68,0.051,ND
2017/06/08,05:50,0.66,0.056,ND
2017/06/08,06:00,0.68,0.053,ND
2017/06/08,06:10,0.67,0.049,ND
2017/06/08,06:20,0.67,0.041,ND
2017/06/08,06:30,0.65,0.047,ND
2017/06/08,06:40,0.64,0.045,ND
2017/06/08,06:50,0.69,0.036,ND
2017/06/08,07:00,0.68,0.038,ND
2017/06/08,07:10,0.67,0.039,ND
2017/06/08,07:20,0.69,0.033,ND
2017/06/08,07:30,0.68,0.036,ND
2017/06/08,07:40,0.64,0.033,ND
2017/06/08,07:50,0.65,0.038,ND
2017/06/08,08:00,0.65,0.030,ND
2017/06/08,08:10,0.67,0.029,ND
2017/06/08,08:20,0.67,0.028,ND
2017/06/08,08:30,0.76,ND,ND
2017/06/08,08:40,0.72,0.028,ND
2017/06/08,08:50,0.71,0.029,ND
2017/06/08,09:00,0.75,0.032,ND
2017/06/08,09:10,0.82,0.036,ND
2017/06/08,09:20,0.80,0.041,ND
2017/06/08,09:30,0.78,0.036,ND
2017/06/08,09:40,0.76,0.037,ND
2017/06/08,09:50,0.76,0.040,ND
2017/06/08,10:00,0.75,0.039,ND
2017/06/08,10:10,0.72,0.051,ND
2017/06/08,10:20,0.71,0.051,ND
2017/06/08,10:30,0.72,0.045,11
2017/06/08,10:40,0.72,0.038,12
2017/06/08,10:50,0.71,0.037,12
2017/06/08,11:00,0.71,0.031,11
2017/06/08,11:10,0.72,0.029,8.8
2017/06/08,11:20,0.77,ND,9.6
2017/06/08,11:30,0.72,0.032,ND
2017/06/08,11:40,0.71,0.028,ND
2017/06/08,11:50,0.70,0.033,ND
2017/06/08,12:00,0.70,0.034,ND
2017/06/08,12:10,0.71,0.028,ND
2017/06/08,12:20,0.68,0.049,ND
2017/06/08,12:30,0.69,0.055,ND
2017/06/08,12:40,0.72,0.039,ND
2017/06/08,12:50,0.74,0.034,ND
2017/06/08,13:00,0.72,0.038,ND
2017/06/08,13:10,0.66,0.070,ND
2017/06/08,13:20,0.71,0.033,ND
2017/06/08,13:30,0.66,0.061,ND
2017/06/08,13:40,0.71,0.031,9.7
2017/06/08,13:50,0.69,0.035,ND
2017/06/08,14:00,0.70,0.030,ND
2017/06/08,14:10,0.69,0.037,ND
2017/06/08,14:20,0.70,0.033,ND
2017/06/08,14:30,0.68,0.033,ND
2017/06/08,14:40,0.69,0.031,ND
2017/06/08,14:50,0.71,0.026,ND
2017/06/08,15:00,0.70,0.032,ND
2017/06/08,15:10,0.71,0.027,ND
2017/06/08,15:20,0.67,0.037,ND
2017/06/08,15:30,0.70,0.038,ND
2017/06/08,15:40,0.67,0.046,ND
2017/06/08,15:50,0.67,0.040,ND
2017/06/08,16:00,0.66,0.040,ND
2017/06/08,16:10,0.64,0.046,ND
2017/06/08,16:20,0.67,0.030,ND
2017/06/08,16:30,0.65,0.027,ND
2017/06/08,16:40,0.64,0.030,ND
2017/06/08,16:50,0.63,0.034,ND
2017/06/08,17:00,0.64,0.036,ND
2017/06/08,17:10,0.66,0.035,ND
2017/06/08,17:20,0.66,0.042,ND
2017/06/08,17:30,0.65,0.047,ND
2017/06/08,17:40,0.68,0.043,ND
2017/06/08,17:50,0.68,0.038,ND
2017/06/08,18:00,0.69,0.038,ND
2017/06/08,18:10,0.73,0.035,ND
2017/06/08,18:20,0.73,0.032,ND
2017/06/08,18:30,0.77,0.026,ND
2017/06/08,18:40,0.75,0.035,ND
2017/06/08,18:50,0.80,0.030,ND
2017/06/08,19:00,0.79,ND,ND
2017/06/08,19:10,0.81,ND,ND
2017/06/08,19:20,0.77,0.030,9.2
2017/06/08,19:30,0.72,0.043,10
2017/06/08,19:40,0.80,0.029,11
2017/06/08,19:50,0.80,0.039,ND
2017/06/08,20:00,0.76,0.041,8.8
2017/06/08,20:10,0.84,0.052,ND
2017/06/08,20:20,0.85,0.045,ND
2017/06/08,20:30,0.83,0.040,ND
2017/06/08,20:40,0.83,0.048,ND
2017/06/08,20:50,0.84,0.038,ND
2017/06/08,21:00,0.84,0.043,ND
2017/06/08,21:10,0.87,0.038,ND
2017/06/08,21:20,0.89,0.039,ND
2017/06/08,21:30,0.88,0.038,ND
2017/06/08,21:40,0.90,0.039,10
2017/06/08,21:50,0.91,0.039,10
2017/06/08,22:00,0.93,0.029,8.8
2017/06/08,22:10,0.92,0.036,10
2017/06/08,22:20,0.91,0.035,ND
2017/06/08,22:30,0.92,0.034,ND
2017/06/08,22:40,0.92,0.030,ND
2017/06/08,22:50,0.96,ND,ND
2017/06/08,23:00,0.90,0.036,8.9
2017/06/08,23:10,0.90,0.031,9.0
2017/06/08,23:20,0.89,0.036,ND
2017/06/08,23:30,0.88,0.032,ND
2017/06/08,23:40,0.89,0.028,ND
2017/06/08,23:50,0.86,0.030,ND
